Overview Statistics Trail Chart Weather Telemetry Raw packets
 

This is the latest recevied weather packets stored in our database for station/object IU5GBO-13. If no packets are shown the sender has not sent any weather packets the latest 10 day(s).

<< 44 45 46 47 48 49 50 >>
Time Temp. Humidity Pressure Rain* Wind** Luminosity Snow
1777385771 23.33° C 36% 1016.4 hPa - - - -
1777385171 23.33° C 35% 1016.5 hPa - - - -
1777384571 23.89° C 34% 1016.5 hPa - - - -
1777383971 23.89° C 36% 1016.6 hPa - - - -
1777383371 23.33° C 37% 1016.8 hPa - - - -
1777382771 23.33° C 39% 1016.9 hPa - - - -
1777382171 23.33° C 35% 1016.9 hPa - - - -
1777381571 23.89° C 40% 1017 hPa - - - -
1777380971 23.89° C 37% 1016.9 hPa - - - -
1777380371 23.89° C 37% 1017.1 hPa - - - -
1777379771 23.89° C 36% 1017 hPa - - - -
1777379171 23.89° C 38% 1017 hPa - - - -
1777378570 23.89° C 34% 1017 hPa - - - -
1777377971 23.89° C 35% 1016.9 hPa - - - -
1777377371 23.89° C 36% 1017 hPa - - - -
1777376771 23.89° C 36% 1017.1 hPa - - - -
1777376171 23.89° C 35% 1017.1 hPa - - - -
1777375571 23.89° C 37% 1017.3 hPa - - - -
1777374971 23.89° C 38% 1017.3 hPa - - - -
1777374371 23.89° C 37% 1017.4 hPa - - - -
1777373773 23.89° C 35% 1017.4 hPa - - - -
1777373171 23.89° C 38% 1017.6 hPa - - - -
1777372571 23.89° C 37% 1017.6 hPa - - - -
1777371971 23.89° C 40% 1017.7 hPa - - - -
1777371374 23.89° C 38% 1017.8 hPa - - - -

* Rain since midnight (hover to see other rain measurements)
** Current wind speed in m/s (hover to see current wind gust speed)